sat.trackr.live / text

‹ back to catalog

CENTISPACE-1 S8

NORAD 62577 · 2025-007C

PAYLOAD ACTIVE UNKNOWN

§ Identity

Operator
Country
PRC
Launch date
2025-01-13
Launch site
YSLA
Launch vehicle
Mass (kg)
RCS (m²)

External: N2YO · Heavens-Above · Gunter

§ Orbital elements

Epoch: 2026-05-25T03:00:38.174112Z

Period
104.30 min
Inclination
54.9863°
Eccentricity
0.0016305
Mean motion
13.80629576 rev/d
Perigee alt
949.7 km
Apogee alt
973.6 km
Semi-major
7,339.8 km
B*
9.1812e-5
RAAN
12.2173°
Arg perigee
77.7690°
Mean anomaly
282.5091°
Rev number
7,154

§ Raw data

CENTISPACE-1 S81 62577U 25007C   26145.12544183 -.00000044  00000+0  91812-4 0  99902 62577  54.9863  12.2173 0016305  77.7690 282.5091 13.80629576 71542

JSON: /api/v1/satellites/62577 · /tle

For live sub-satellite position, see the globe view (requires WebGL).

§ Visibility from observer

Set your observer location to see the next 7 days of passes ≥ 10°. The values pass through the URL so the page stays shareable.

No JS? Fill the form by hand. The geolocation button needs JavaScript.